Precipitable_Water
0.57 0.54 0.49 0.47 0.46 0.45 0.42 0.37 0.26 0.51 0.62 0.35 0.38 0.33 0.39 0.46 0.44 0.51 0.48 0.48 0.44 0.42 0.44 0.39 0.37 0.37 0.42 0.50 0.40 0.27 0.30 0.29 0.22 0.25 0.37 0.36 0.35 0.35 0.35 0.27 0.27 0.30 0.26 0.23
0.56 0.53 0.49 0.46 0.46 0.42 0.38 0.28 0.32 0.46 0.49 0.27 0.32 0.39 0.38 0.44 0.43 0.46 0.44 0.43 0.45 0.47 0.41 0.37 0.42 0.43 0.55 0.52 0.47 0.36 0.35 0.26 0.17 0.26 0.35 0.39 0.34 0.37 0.36 0.35 0.35 0.27 0.21 0.22
0.55 0.52 0.48 0.45 0.43 0.40 0.37 0.27 0.17 0.27 0.37 0.40 0.36 0.34 0.34 0.34 0.48 0.47 0.47 0.45 0.45 0.40 0.39 0.42 0.39 0.42 0.51 0.55 0.53 0.54 0.47 0.36 0.22 0.18 0.23 0.30 0.29 0.34 0.37 0.35 0.28 0.27 0.26 0.26
0.56 0.52 0.47 0.45 0.41 0.39 0.34 0.25 0.22 0.27 0.21 0.26 0.34 0.39 0.37 0.33 0.34 0.43 0.48 0.43 0.42 0.39 0.33 0.37 0.36 0.41 0.45 0.54 0.56 0.56 0.50 0.35 0.33 0.32 0.32 0.33 0.33 0.35 0.35 0.34 0.35 0.29 0.30 0.28
0.56 0.51 0.48 0.45 0.42 0.39 0.29 0.22 0.22 0.27 0.25 0.27 0.30 0.35 0.34 0.33 0.35 0.39 0.39 0.39 0.42 0.44 0.36 0.38 0.36 0.41 0.41 0.40 0.48 0.46 0.48 0.35 0.36 0.31 0.37 0.36 0.32 0.36 0.37 0.38 0.38 0.38 0.35 0.31
0.55 0.50 0.48 0.46 0.44 0.41 0.30 0.34 0.36 0.28 0.23 0.23 0.24 0.24 0.32 0.33 0.36 0.43 0.46 0.45 0.43 0.41 0.43 0.47 0.49 0.52 0.48 0.45 0.40 0.40 0.38 0.34 0.28 0.25 0.37 0.36 0.28 0.34 0.36 0.38 0.41 0.37 0.29 0.31
0.55 0.50 0.49 0.49 0.48 0.44 0.38 0.35 0.32 0.22 0.17 0.21 0.22 0.23 0.26 0.29 0.37 0.37 0.44 0.50 0.46 0.51 0.59 0.56 0.50 0.48 0.45 0.42 0.41 0.42 0.35 0.34 0.30 0.24 0.29 0.20 0.31 0.40 0.39 0.35 0.36 0.37 0.36 0.39
0.54 0.49 0.48 0.48 0.50 0.48 0.41 0.39 0.30 0.24 0.16 0.22 0.21 0.21 0.23 0.25 0.36 0.38 0.42 0.50 0.56 0.60 0.52 0.41 0.35 0.33 0.34 0.34 0.37 0.38 0.40 0.34 0.26 0.23 0.23 0.28 0.31 0.36 0.40 0.35 0.35 0.45 0.47 0.49
0.51 0.47 0.48 0.46 0.51 0.50 0.42 0.39 0.39 0.30 0.19 0.16 0.23 0.22 0.23 0.23 0.28 0.34 0.42 0.52 0.55 0.59 0.45 0.39 0.28 0.24 0.27 0.26 0.31 0.37 0.36 0.37 0.29 0.26 0.20 0.18 0.33 0.41 0.47 0.46 0.30 0.44 0.46 0.47
0.48 0.46 0.45 0.46 0.49 0.50 0.44 0.41 0.44 0.33 0.20 0.24 0.25 0.20 0.21 0.27 0.29 0.29 0.36 0.43 0.45 0.57 0.41 0.33 0.29 0.28 0.34 0.25 0.26 0.27 0.26 0.27 0.23 0.25 0.21 0.26 0.42 0.42 0.47 0.26 0.28 0.41 0.43 0.45
0.47 0.45 0.43 0.45 0.47 0.48 0.44 0.41 0.49 0.36 0.26 0.27 0.31 0.30 0.24 0.26 0.29 0.27 0.36 0.38 0.44 0.44 0.37 0.34 0.33 0.30 0.32 0.29 0.33 0.31 0.27 0.24 0.23 0.24 0.20 0.17 0.41 0.41 0.31 0.43 0.50 0.49 0.49 0.50
0.47 0.44 0.42 0.45 0.47 0.47 0.44 0.35 0.47 0.48 0.34 0.31 0.38 0.36 0.35 0.32 0.34 0.33 0.37 0.40 0.42 0.44 0.40 0.41 0.39 0.33 0.35 0.31 0.25 0.39 0.27 0.33 0.29 0.29 0.27 0.37 0.44 0.45 0.50 0.54 0.50 0.52 0.55 0.58
0.47 0.43 0.44 0.45 0.44 0.45 0.44 0.39 0.44 0.43 0.35 0.31 0.31 0.28 0.36 0.39 0.37 0.43 0.32 0.40 0.51 0.47 0.51 0.45 0.43 0.34 0.39 0.29 0.30 0.34 0.39 0.42 0.34 0.34 0.37 0.41 0.47 0.53 0.57 0.56 0.54 0.56 0.57 0.57
0.44 0.43 0.43 0.42 0.42 0.44 0.46 0.41 0.47 0.44 0.36 0.25 0.25 0.36 0.32 0.38 0.38 0.38 0.43 0.44 0.52 0.52 0.52 0.45 0.43 0.37 0.45 0.35 0.37 0.34 0.37 0.41 0.37 0.36 0.42 0.44 0.49 0.53 0.56 0.57 0.59 0.58 0.60 0.59
0.44 0.43 0.41 0.41 0.41 0.44 0.45 0.44 0.46 0.49 0.34 0.22 0.22 0.31 0.33 0.37 0.36 0.35 0.41 0.41 0.40 0.44 0.42 0.42 0.41 0.47 0.45 0.44 0.41 0.35 0.40 0.36 0.33 0.32 0.43 0.43 0.46 0.53 0.56 0.54 0.55 0.58 0.58 0.58
0.44 0.42 0.41 0.40 0.42 0.44 0.36 0.26 0.47 0.53 0.48 0.32 0.21 0.32 0.32 0.37 0.39 0.35 0.33 0.37 0.39 0.44 0.43 0.44 0.48 0.54 0.47 0.36 0.33 0.40 0.45 0.47 0.47 0.41 0.50 0.50 0.53 0.56 0.58 0.55 0.56 0.56 0.56 0.57
0.42 0.43 0.40 0.39 0.40 0.37 0.26 0.25 0.42 0.55 0.52 0.34 0.26 0.24 0.33 0.37 0.42 0.34 0.34 0.37 0.39 0.41 0.45 0.44 0.45 0.46 0.49 0.41 0.32 0.41 0.46 0.48 0.50 0.52 0.51 0.45 0.49 0.48 0.55 0.55 0.55 0.56 0.56 0.56
0.41 0.42 0.39 0.38 0.41 0.40 0.32 0.45 0.50 0.52 0.42 0.37 0.26 0.26 0.29 0.42 0.33 0.32 0.36 0.33 0.37 0.44 0.46 0.49 0.44 0.50 0.49 0.35 0.41 0.46 0.49 0.50 0.50 0.51 0.52 0.51 0.53 0.53 0.53 0.54 0.52 0.49 0.49 0.51
0.40 0.39 0.41 0.38 0.33 0.27 0.31 0.45 0.51 0.52 0.41 0.28 0.28 0.23 0.22 0.40 0.37 0.41 0.41 0.41 0.34 0.44 0.38 0.41 0.44 0.40 0.33 0.39 0.42 0.45 0.47 0.46 0.47 0.51 0.51 0.51 0.50 0.50 0.50 0.49 0.48 0.46 0.46 0.48
0.38 0.36 0.27 0.22 0.27 0.38 0.41 0.40 0.33 0.35 0.37 0.35 0.26 0.32 0.26 0.34 0.35 0.36 0.38 0.42 0.37 0.32 0.36 0.44 0.37 0.33 0.40 0.44 0.48 0.50 0.49 0.50 0.50 0.45 0.43 0.45 0.46 0.47 0.47 0.48 0.49 0.48 0.48 0.49
0.32 0.24 0.23 0.31 0.39 0.33 0.31 0.25 0.24 0.27 0.24 0.30 0.29 0.30 0.27 0.37 0.32 0.33 0.42 0.37 0.39 0.29 0.34 0.37 0.34 0.30 0.38 0.46 0.47 0.50 0.51 0.51 0.49 0.50 0.50 0.50 0.49 0.47 0.47 0.48 0.51 0.50 0.49 0.49
0.31 0.30 0.36 0.36 0.29 0.26 0.21 0.21 0.24 0.21 0.20 0.26 0.25 0.27 0.31 0.35 0.44 0.37 0.40 0.35 0.38 0.28 0.43 0.35 0.27 0.34 0.43 0.45 0.46 0.48 0.49 0.49 0.49 0.50 0.49 0.49 0.49 0.48 0.48 0.47 0.47 0.48 0.50 0.51
0.36 0.29 0.24 0.21 0.21 0.16 0.15 0.13 0.15 0.13 0.19 0.23 0.24 0.23 0.28 0.35 0.42 0.39 0.38 0.32 0.31 0.44 0.34 0.30 0.32 0.40 0.45 0.47 0.48 0.49 0.50 0.50 0.50 0.50 0.50 0.50 0.50 0.51 0.50 0.48 0.50 0.51 0.51 0.52
0.23 0.19 0.14 0.14 0.14 0.18 0.18 0.16 0.16 0.21 0.22 0.22 0.23 0.23 0.24 0.32 0.34 0.37 0.31 0.37 0.38 0.29 0.26 0.27 0.37 0.44 0.46 0.49 0.50 0.49 0.49 0.49 0.47 0.46 0.45 0.44 0.44 0.44 0.45 0.43 0.41 0.39 0.37 0.42
0.22 0.21 0.13 0.15 0.20 0.23 0.24 0.26 0.24 0.25 0.25 0.23 0.22 0.23 0.25 0.28 0.32 0.37 0.36 0.31 0.27 0.29 0.28 0.37 0.44 0.49 0.51 0.51 0.52 0.51 0.51 0.51 0.48 0.44 0.41 0.39 0.39 0.39 0.38 0.37 0.37 0.37 0.35 0.33
0.24 0.22 0.18 0.19 0.17 0.17 0.21 0.22 0.21 0.26 0.25 0.24 0.25 0.22 0.22 0.25 0.33 0.31 0.30 0.29 0.26 0.31 0.39 0.45 0.48 0.50 0.52 0.52 0.52 0.53 0.53 0.48 0.48 0.43 0.40 0.39 0.39 0.37 0.33 0.29 0.25 0.25 0.25 0.22
0.23 0.20 0.23 0.21 0.19 0.17 0.19 0.22 0.23 0.29 0.23 0.17 0.20 0.17 0.20 0.29 0.28 0.29 0.34 0.29 0.34 0.39 0.43 0.47 0.49 0.49 0.51 0.52 0.52 0.53 0.53 0.47 0.45 0.44 0.42 0.40 0.37 0.31 0.22 0.15 0.14 0.16 0.17 0.18
Wind_Speed
35 38 41 43 45 44 39 34 31 34 27 21 15 10 9 6 6 4 5 6 6 7 7 7 4 5 4 8 12 11 13 12 18 22 20 26 25 24 21 16 14 12 12 10
34 38 40 43 44 43 38 33 32 32 27 21 16 12 8 6 6 7 5 6 7 8 7 6 8 9 10 10 10 13 12 14 18 17 19 24 28 26 23 19 13 15 12 11
33 36 39 42 44 42 36 33 32 31 28 23 17 13 8 8 6 5 6 5 6 7 6 8 9 8 6 8 5 9 13 11 17 18 17 21 27 31 26 22 16 15 16 13
32 35 38 41 42 41 35 35 31 30 29 23 18 13 9 8 7 5 6 4 8 6 4 5 7 7 6 6 5 8 7 8 12 10 12 18 25 29 24 24 22 16 16 16
30 33 36 39 41 39 36 33 33 31 27 25 19 14 8 8 7 6 5 6 9 6 3 3 4 7 5 3 3 4 5 10 10 8 11 11 21 23 22 20 21 21 16 16
28 31 34 37 40 39 35 35 32 30 28 25 18 14 9 8 9 7 8 8 9 4 4 7 6 3 2 1 3 3 6 9 10 8 8 9 12 22 22 18 19 19 18 17
26 29 32 35 38 38 35 34 32 30 27 23 19 16 12 10 10 9 10 8 6 5 10 7 2 2 2 1 1 2 5 6 7 9 8 8 10 12 20 19 18 19 16 15
24 27 30 33 36 37 34 34 32 29 27 23 20 18 12 10 8 6 8 6 7 9 6 3 2 2 1 1 1 1 3 5 5 7 8 6 7 10 13 15 16 17 16 13
22 25 28 31 34 35 34 34 32 30 27 24 22 16 13 9 8 7 7 7 7 4 4 3 3 3 3 2 2 2 3 3 5 6 6 6 6 7 9 10 11 14 14 13
20 23 26 30 32 34 34 33 32 30 27 24 22 18 15 10 8 9 7 5 5 4 3 3 3 4 4 3 2 3 3 4 5 6 5 5 7 7 8 7 8 9 11 12
19 22 25 28 31 33 33 32 32 31 27 26 23 20 14 11 8 8 7 6 4 5 4 4 4 3 3 4 4 3 4 4 6 6 5 5 7 7 8 7 6 8 9 9
18 21 23 26 30 33 32 31 32 32 29 27 26 20 16 12 12 10 8 8 6 5 5 4 4 4 3 4 4 4 5 6 6 7 8 6 7 7 7 6 6 6 7 8
17 19 22 25 29 32 32 31 32 33 30 29 21 20 15 11 12 14 11 9 8 7 4 6 6 5 4 4 5 5 5 6 6 5 5 6 6 6 6 6 6 6 6 7
15 18 22 25 28 30 32 31 32 31 31 24 25 22 17 12 10 15 17 14 11 9 8 7 7 6 5 6 7 7 7 5 6 6 6 6 6 6 6 6 6 5 5 6
15 18 21 24 26 29 30 30 29 30 30 26 23 19 12 9 7 12 15 16 15 12 10 9 8 7 6 7 7 8 8 8 7 8 8 8 7 8 7 6 6 6 6 7
15 17 20 23 26 27 26 26 27 28 30 25 20 18 13 10 7 9 13 15 15 14 11 10 10 9 7 6 7 7 7 7 8 7 7 7 8 8 8 8 8 8 9 10
15 17 20 23 23 23 23 24 25 27 27 24 20 17 14 12 5 5 8 14 14 14 12 11 11 10 8 8 9 8 8 7 8 7 8 8 9 9 9 10 10 10 10 11
15 17 19 19 18 20 22 22 22 23 23 22 20 16 14 12 7 5 7 10 14 14 13 11 11 9 9 9 9 8 8 8 7 7 8 9 9 9 9 10 11 11 12 13
15 14 15 16 19 20 20 21 19 19 20 20 20 18 14 13 9 7 7 10 12 14 14 13 11 10 10 10 9 9 8 9 9 9 9 9 10 10 11 11 12 12 13 13
12 14 15 16 19 20 17 17 18 19 18 18 19 20 16 14 10 8 7 10 11 12 14 13 13 13 14 12 11 10 10 11 11 12 12 12 12 12 13 13 14 14 15 15
13 14 14 17 18 16 15 15 17 19 19 18 19 20 19 16 10 9 8 7 9 10 13 14 13 12 11 11 11 12 11 11 12 12 13 13 14 15 16 16 17 17 17 18
14 13 14 15 15 14 13 16 17 18 18 21 21 21 20 15 10 8 8 8 10 10 9 12 13 13 12 11 10 10 10 11 12 14 15 15 16 17 18 18 18 18 18 18
13 14 14 14 15 14 14 16 18 20 22 22 23 22 18 12 9 9 9 9 9 9 9 10 11 11 11 11 10 9 9 9 10 10 11 12 13 14 15 15 16 17 17 17
13 13 14 13 14 14 15 16 18 21 22 24 24 21 15 13 11 10 9 10 9 9 8 10 11 11 12 12 11 10 9 7 6 5 4 5 6 7 8 10 11 13 14 14
14 13 14 14 15 16 18 19 21 22 23 24 23 20 14 11 11 10 10 10 11 10 9 8 9 10 11 12 12 10 9 7 5 4 3 4 4 5 5 7 8 9 10 11
14 14 15 16 17 19 19 21 22 21 23 23 20 18 13 10 9 9 10 9 8 9 8 9 9 10 10 10 11 11 10 9 6 4 4 4 5 6 7 8 9 9 9 9
14 16 16 17 19 20 20 20 21 22 22 20 20 16 11 11 9 8 8 7 7 9 10 10 10 11 11 10 11 13 12 10 7 5 4 5 6 8 8 8 7 7 7 8
Wind_Direction
348 350 351 352 352 353 355 355 355 354 353 352 345 341 324 315 318 329 327 344 347 357 15 26 22 8 13 155 163 161 177 190 190 191 194 194 193 194 191 193 204 207 203 214
348 351 352 353 353 354 354 355 353 355 356 354 346 335 324 311 317 321 326 343 356 346 0 10 27 31 60 141 146 166 166 194 177 188 194 195 201 200 201 206 211 213 201 215
348 350 352 353 354 355 355 355 355 353 357 355 348 342 323 322 303 300 319 315 349 350 358 16 29 25 63 106 180 182 168 164 186 192 192 190 201 201 200 203 207 211 214 222
346 349 351 353 355 356 356 356 355 354 352 352 346 342 334 316 323 303 316 293 353 345 337 358 23 29 45 111 89 141 173 165 171 181 186 190 191 187 194 206 213 210 222 228
344 347 350 353 355 356 358 356 355 353 352 348 347 346 342 317 309 275 290 307 324 328 5 351 341 17 44 51 61 144 144 178 173 159 168 171 184 198 205 214 214 227 233 241
341 346 350 353 355 357 356 356 356 356 352 351 352 342 328 307 312 261 263 297 299 295 319 310 285 270 327 13 52 102 140 150 164 173 170 172 199 207 208 215 217 218 227 239
339 344 348 351 353 357 356 356 356 356 353 353 349 342 324 302 301 264 274 286 279 271 306 289 247 234 232 70 87 106 139 147 167 183 192 208 217 214 208 213 219 224 232 241
337 342 346 348 351 354 355 356 355 353 351 348 344 338 330 301 290 268 261 268 277 290 277 267 266 258 263 287 49 99 146 155 149 168 188 214 204 203 201 208 228 226 226 229
335 339 344 347 349 352 353 354 353 353 351 348 341 338 329 313 291 276 244 273 277 269 245 244 227 225 242 254 286 181 172 161 174 179 176 190 197 197 201 200 231 222 218 221
332 338 342 345 347 349 351 351 352 351 347 347 344 332 317 305 284 266 260 264 257 263 257 232 233 236 233 228 245 242 212 209 188 197 196 220 209 206 194 196 228 214 211 215
327 333 339 343 346 347 348 349 350 350 343 341 340 334 316 296 267 247 256 246 230 245 242 239 242 235 235 228 233 219 212 205 212 209 208 220 209 203 202 225 228 208 206 216
324 331 336 341 344 346 347 348 347 346 343 336 334 328 314 280 252 246 238 233 239 238 239 235 237 243 239 230 234 235 218 209 214 207 218 224 216 221 220 216 208 211 217 231
319 328 334 338 342 345 346 346 347 347 345 341 343 335 323 297 253 236 229 226 225 221 239 240 234 241 234 240 238 240 232 218 217 217 224 214 210 211 212 215 216 226 230 237
316 324 332 336 340 342 344 345 346 348 347 344 338 332 318 305 258 233 227 227 227 238 246 234 233 239 239 244 243 236 233 233 220 225 220 209 216 215 213 218 225 233 241 246
311 321 329 335 339 342 345 348 352 352 354 348 347 346 341 322 272 237 230 229 228 233 239 239 239 242 253 252 253 243 226 222 216 226 224 220 224 220 226 231 236 243 248 254
307 319 327 333 336 340 345 349 354 357 358 356 355 353 348 337 296 243 226 222 223 223 229 235 238 238 246 251 243 237 227 231 228 236 229 231 224 228 237 238 248 258 264 265
303 316 326 331 335 340 346 347 347 352 357 0 354 353 354 346 312 258 230 217 220 221 228 231 235 242 243 245 242 247 250 237 233 235 234 240 241 243 246 251 260 265 266 268
299 314 325 332 339 342 344 347 348 352 357 359 357 349 347 352 325 273 236 222 219 220 227 231 234 241 240 245 245 240 237 230 236 243 248 247 244 245 252 259 268 272 273 272
297 310 321 329 334 338 338 341 346 349 352 354 353 351 340 339 329 290 250 226 225 225 227 233 234 235 235 241 241 242 239 245 242 248 252 254 252 252 260 267 274 275 276 276
294 305 316 323 330 334 338 341 344 344 344 344 344 345 335 330 315 293 259 237 231 228 229 228 234 243 245 245 246 251 256 259 257 256 258 257 255 260 267 270 271 274 277 278
292 301 308 317 325 331 336 339 342 341 340 336 334 334 329 325 303 286 268 248 236 238 233 231 237 243 245 242 245 254 258 261 263 262 261 262 263 266 270 273 273 275 277 278
287 295 307 315 322 327 333 334 336 336 337 334 331 329 324 317 291 279 262 255 241 243 230 234 240 241 241 238 245 255 260 265 268 268 268 268 268 269 271 272 274 276 277 278
288 296 305 312 316 325 327 327 329 331 331 332 327 325 317 309 278 262 254 253 244 233 235 242 239 235 237 239 244 251 262 270 274 275 273 272 271 271 271 271 273 275 276 278
285 291 300 303 307 309 314 318 322 323 326 327 325 319 306 297 272 252 247 242 242 245 242 251 246 245 239 237 244 251 256 261 265 271 284 292 289 284 279 279 279 277 277 276
280 288 290 291 300 306 310 314 319 320 323 326 324 317 297 285 267 247 249 243 241 241 252 250 261 255 242 239 243 242 234 230 229 251 290 315 316 314 305 303 299 294 289 284
278 281 289 292 302 304 307 309 313 316 320 322 322 316 292 272 263 252 245 247 245 249 258 264 260 256 247 246 238 225 216 210 219 247 279 300 312 314 313 312 311 306 302 297
276 281 283 291 298 300 304 308 310 314 316 318 317 311 278 267 251 248 252 249 262 269 264 269 267 262 252 241 227 212 208 212 223 248 276 299 308 315 322 328 329 327 326 321